• In Portugal
  • List of Countries
  • For 7 days
  • Water Temperature
  • Satellite Maps
  • Weather Map
  • Weather Widgets
  • user-avatar
    Login

    Hourly Weather Eisenstadt

    Today, 22 October, Monday

    Time Temperature Precipitation Wind Pressure Humidity
    00:00 +5°C° 0 mm 3 mps 729 mmHg 75%
    01:00 +5°C° 0 mm 3 mps 729 mmHg 75%
    02:00 +5°C° 0 mm 3 mps 729 mmHg 75%
    03:00 +5°C° 0 mm 3 mps 729 mmHg 75%
    04:00 +6°C° 0 mm 2 mps 729 mmHg 75%
    05:00 +6°C° 0 mm 2 mps 729 mmHg 77%
    06:00 +6°C° 0 mm 2 mps 729 mmHg 78%
    07:00 +5°C° 0 mm 2 mps 729 mmHg 80%
    08:00 +7°C° 0 mm 2 mps 729 mmHg 73%
    09:00 +9°C° 0 mm 2 mps 729 mmHg 67%
    10:00 +12°C° 0 mm 2 mps 729 mmHg 61%
    11:00 +13°C° 0 mm 2 mps 728 mmHg 58%
    12:00 +14°C° 0 mm 2 mps 728 mmHg 56%
    13:00 +15°C° 0 mm 2 mps 728 mmHg 53%
    14:00 +14°C° 0 mm 2 mps 728 mmHg 56%
    15:00 +14°C° 0 mm 2 mps 727 mmHg 58%
    16:00 +13°C° 0 mm 2 mps 727 mmHg 60%
    17:00 +12°C° 0 mm 2 mps 727 mmHg 66%
    18:00 +10°C° 0 mm 2 mps 728 mmHg 71%
    19:00 +8°C° 0 mm 2 mps 728 mmHg 76%
    20:00 +8°C° 0 mm 2 mps 728 mmHg 77%
    21:00 +8°C° 0 mm 2 mps 728 mmHg 78%
    22:00 +7°C° 0 mm 2 mps 729 mmHg 79%
    23:00 +7°C° 0 mm 3 mps 729 mmHg 79%

    Tomorrow, 23 October, Tuesday

    Time Temperature Precipitation Wind Pressure Humidity
    00:00 +7°C° 0 mm 3 mps 729 mmHg 79%
    01:00 +7°C° 0 mm 3 mps 729 mmHg 79%
    02:00 +7°C° 0 mm 3 mps 728 mmHg 79%
    03:00 +7°C° 0 mm 3 mps 728 mmHg 79%
    04:00 +7°C° 0 mm 4 mps 728 mmHg 79%
    05:00 +6°C° 0 mm 4 mps 728 mmHg 80%
    06:00 +7°C° 0 mm 3 mps 728 mmHg 81%
    07:00 +7°C° 0 mm 3 mps 728 mmHg 82%
    08:00 +7°C° 0 mm 4 mps 728 mmHg 75%
    09:00 +10°C° 0 mm 4 mps 728 mmHg 68%
    10:00 +11°C° 0 mm 4 mps 728 mmHg 61%
    11:00 +12°C° 0 mm 4 mps 727 mmHg 58%
    12:00 +13°C° 0 mm 4 mps 727 mmHg 55%
    13:00 +13°C° 0 mm 5 mps 726 mmHg 52%
    14:00 +13°C° 0 mm 4 mps 726 mmHg 53%
    15:00 +13°C° 0 mm 4 mps 725 mmHg 55%
    16:00 +12°C° 0 mm 3 mps 724 mmHg 57%
    17:00 +11°C° 0 mm 3 mps 724 mmHg 60%
    18:00 +11°C° 0 mm 3 mps 724 mmHg 64%
    19:00 +10°C° 0 mm 3 mps 724 mmHg 68%
    20:00 +10°C° 0 mm 4 mps 723 mmHg 68%
    21:00 +10°C° 0 mm 4 mps 723 mmHg 68%
    22:00 +10°C° 0 mm 4 mps 723 mmHg 68%
    23:00 +8°C° 0 mm 5 mps 722 mmHg 68%

    Day after tomorrow, 24 October, Wednesday

    Time Temperature Precipitation Wind Pressure Humidity
    00:00 +8°C° 0 mm 5 mps 721 mmHg 69%
    01:00 +8°C° 0 mm 5 mps 721 mmHg 70%
    02:00 +8°C° 0 mm 5 mps 720 mmHg 70%
    03:00 +8°C° 0 mm 5 mps 719 mmHg 69%
    04:00 +8°C° 0 mm 6 mps 719 mmHg 69%
    05:00 +8°C° 0 mm 6 mps 718 mmHg 68%
    06:00 +9°C° 0 mm 7 mps 718 mmHg 66%
    07:00 +9°C° 0 mm 8 mps 718 mmHg 65%
    08:00 +10°C° 0.4 mm 8 mps 718 mmHg 63%
    09:00 +11°C° 0.4 mm 9 mps 719 mmHg 61%
    10:00 +12°C° 0.4 mm 10 mps 719 mmHg 59%
    11:00 +12°C° 0.5 mm 10 mps 719 mmHg 61%
    12:00 +11°C° 0.5 mm 9 mps 720 mmHg 62%
    13:00 +11°C° 0.5 mm 8 mps 720 mmHg 63%
    14:00 +10°C° 0.2 mm 8 mps 720 mmHg 61%
    15:00 +10°C° 0.2 mm 8 mps 721 mmHg 60%
    16:00 +10°C° 0.2 mm 8 mps 721 mmHg 58%
    17:00 +9°C° 0 mm 8 mps 722 mmHg 59%
    18:00 +8°C° 0 mm 7 mps 722 mmHg 59%
    19:00 +6°C° 0 mm 7 mps 723 mmHg 60%
    20:00 +6°C° 0 mm 7 mps 723 mmHg 61%
    21:00 +5°C° 0 mm 6 mps 724 mmHg 62%
    22:00 +5°C° 0 mm 6 mps 724 mmHg 63%
    23:00 +5°C° 0 mm 5 mps 724 mmHg 66%

    25 October, Thursday

    Time Temperature Precipitation Wind Pressure Humidity
    00:00 +5°C° 0 mm 5 mps 724 mmHg 68%
    01:00 +5°C° 0 mm 4 mps 725 mmHg 71%
    02:00 +5°C° 0 mm 3 mps 725 mmHg 73%
    03:00 +5°C° 0 mm 3 mps 725 mmHg 75%
    04:00 +6°C° 0 mm 2 mps 725 mmHg 78%
    05:00 +6°C° 0 mm 2 mps 725 mmHg 77%
    06:00 +6°C° 0 mm 2 mps 725 mmHg 77%
    07:00 +7°C° 0 mm 2 mps 725 mmHg 77%
    08:00 +8°C° 0 mm 2 mps 725 mmHg 74%
    09:00 +9°C° 0 mm 3 mps 725 mmHg 70%
    10:00 +10°C° 0 mm 3 mps 725 mmHg 67%
    11:00 +11°C° 0 mm 3 mps 725 mmHg 64%
    12:00 +12°C° 0 mm 3 mps 724 mmHg 61%
    13:00 +13°C° 0 mm 3 mps 724 mmHg 58%
    14:00 +13°C° 0 mm 3 mps 724 mmHg 60%
    15:00 +14°C° 0 mm 2 mps 723 mmHg 62%
    16:00 +14°C° 0 mm 2 mps 723 mmHg 63%
    17:00 +12°C° 0 mm 2 mps 723 mmHg 68%
    18:00 +10°C° 0 mm 2 mps 723 mmHg 73%
    19:00 +8°C° 0 mm 2 mps 723 mmHg 78%
    20:00 +9°C° 0 mm 1 mps 723 mmHg 79%
    21:00 +9°C° 0 mm 1 mps 723 mmHg 80%
    22:00 +8°C° 0 mm 1 mps 723 mmHg 81%
    23:00 +8°C° 0 mm 1 mps 722 mmHg 81%

    26 October, Friday

    Time Temperature Precipitation Wind Pressure Humidity
    00:00 +8°C° 0 mm 1 mps 722 mmHg 82%
    01:00 +8°C° 0 mm 1 mps 722 mmHg 82%
    02:00 +7°C° 0 mm 1 mps 721 mmHg 83%
    03:00 +7°C° 0 mm 1 mps 721 mmHg 84%
    04:00 +7°C° 0 mm 1 mps 720 mmHg 85%
    05:00 +7°C° 0 mm 1 mps 720 mmHg 85%
    06:00 +7°C° 0 mm 1 mps 720 mmHg 85%
    07:00 +7°C° 0 mm 1 mps 719 mmHg 86%
    08:00 +9°C° 0 mm 1 mps 719 mmHg 77%
    09:00 +11°C° 0 mm 1 mps 719 mmHg 68%
    10:00 +14°C° 0 mm 1 mps 719 mmHg 60%
    11:00 +15°C° 0 mm 2 mps 719 mmHg 57%
    12:00 +16°C° 0 mm 2 mps 718 mmHg 54%
    13:00 +17°C° 0 mm 2 mps 718 mmHg 51%
    14:00 +17°C° 0 mm 2 mps 717 mmHg 55%
    15:00 +16°C° 0 mm 2 mps 717 mmHg 60%
    16:00 +16°C° 0 mm 1 mps 717 mmHg 64%
    17:00 +14°C° 0 mm 2 mps 716 mmHg 70%
    18:00 +13°C° 0 mm 2 mps 716 mmHg 75%
    19:00 +12°C° 0 mm 2 mps 716 mmHg 80%
    20:00 +12°C° 0 mm 2 mps 716 mmHg 82%
    21:00 +10°C° 0 mm 2 mps 716 mmHg 84%
    22:00 +10°C° 0 mm 2 mps 716 mmHg 86%
    23:00 +10°C° 0 mm 2 mps 715 mmHg 87%

    27 October, Saturday

    Time Temperature Precipitation Wind Pressure Humidity
    00:00 +10°C° 0 mm 2 mps 715 mmHg 88%
    01:00 +10°C° 0 mm 2 mps 715 mmHg 89%
    02:00 +10°C° 0 mm 2 mps 714 mmHg 89%
    03:00 +10°C° 0 mm 3 mps 714 mmHg 88%
    04:00 +10°C° 0 mm 3 mps 713 mmHg 88%
    05:00 +11°C° 0 mm 4 mps 713 mmHg 86%
    06:00 +12°C° 0 mm 5 mps 713 mmHg 83%
    07:00 +11°C° 0 mm 6 mps 712 mmHg 81%
    08:00 +14°C° 0 mm 7 mps 712 mmHg 75%
    09:00 +15°C° 0 mm 7 mps 711 mmHg 69%
    10:00 +16°C° 0 mm 8 mps 711 mmHg 63%
    11:00 +17°C° 0 mm 8 mps 711 mmHg 58%
    12:00 +18°C° 0 mm 8 mps 711 mmHg 53%
    13:00 +20°C° 0 mm 8 mps 710 mmHg 49%
    14:00 +18°C° 0 mm 7 mps 710 mmHg 53%
    15:00 +17°C° 0 mm 6 mps 710 mmHg 56%
    16:00 +17°C° 0 mm 4 mps 710 mmHg 60%
    17:00 +15°C° 0.8 mm 4 mps 710 mmHg 67%
    18:00 +14°C° 0.8 mm 4 mps 710 mmHg 73%
    19:00 +13°C° 0.8 mm 3 mps 710 mmHg 80%
    20:00 +12°C° 0.8 mm 3 mps 711 mmHg 82%
    21:00 +12°C° 0.8 mm 3 mps 711 mmHg 83%
    22:00 +11°C° 0.8 mm 3 mps 711 mmHg 84%
    23:00 +11°C° 1.5 mm 3 mps 710 mmHg 85%

    28 October, Sunday

    Time Temperature Precipitation Wind Pressure Humidity
    00:00 +10°C° 1.5 mm 3 mps 710 mmHg 86%
    01:00 +10°C° 1.5 mm 2 mps 710 mmHg 87%
    02:00 +10°C° 3 mm 2 mps 710 mmHg 88%
    03:00 +9°C° 3 mm 3 mps 709 mmHg 89%
    04:00 +9°C° 3 mm 3 mps 709 mmHg 90%
    05:00 +9°C° 1.1 mm 2 mps 709 mmHg 90%
    06:00 +9°C° 1.1 mm 2 mps 709 mmHg 89%
    07:00 +9°C° 1.1 mm 2 mps 710 mmHg 89%
    08:00 +10°C° 0.3 mm 2 mps 710 mmHg 87%
    09:00 +12°C° 0.3 mm 2 mps 710 mmHg 85%
    10:00 +12°C° 0.3 mm 3 mps 711 mmHg 83%
    11:00 +14°C° 0 mm 4 mps 711 mmHg 76%
    12:00 +15°C° 0 mm 5 mps 711 mmHg 69%
    13:00 +17°C° 0 mm 6 mps 711 mmHg 63%
    14:00 +16°C° 0 mm 6 mps 711 mmHg 62%
    15:00 +16°C° 0 mm 5 mps 711 mmHg 62%
    16:00 +15°C° 0 mm 5 mps 712 mmHg 62%
    17:00 +14°C° 0 mm 5 mps 712 mmHg 64%
    18:00 +12°C° 0 mm 4 mps 713 mmHg 66%
    19:00 +11°C° 0 mm 4 mps 713 mmHg 68%
    20:00 +10°C° 0 mm 3 mps 714 mmHg 72%
    21:00 +9°C° 0 mm 3 mps 715 mmHg 76%
    22:00 +8°C° 0 mm 2 mps 715 mmHg 80%
    23:00 +8°C° 0 mm 2 mps 716 mmHg 81%
    Show more